Location: Trebic
(49.2170°N, 15.8830°E)
Time: 23:46:19
(UTC+02:00)

Transit 4A - Pass Details

Date: 03 September 2019
Orbit: 867 x 978 km, 66.8° (Epoch: 23 October)

Event Time Altitude Azimuth Distance (km) Brightness Sun altitude
Rises 03:02:56 0° 311° (NW) 3,606 11.0 -26.7°
Enters shadow 03:05:54 - 294° (WNW) 2,837 10.3 -26.4°
Reaches altitude 10° 03:06:59 10° 285° (WNW) 2,629 - -26.3°
Maximum altitude 03:09:37 13° 260° (W) 2,389 - -26.0°
Drops below altitude 10° 03:12:14 10° 233° (SW) 2,586 - -25.8°
Sets 03:16:10 0° 207° (SSW) 3,496 - -25.4°
